Weather History for KRFD - January, 2014

Change the Weather History Date:

Friday, January 31, 2014

  Actual Average Record
Temperature  
Mean Temperature 14 °F 22 °F  
Max Temperature 18 °F 30 °F 63 °F (1989)
Min Temperature 9 °F 14 °F -18 °F (1996)
Degree Days  
Heating Degree Days 51 43  
Month to date heating degree days 1637 1351  
Since 1 July heating degree days 4425 3909  
Cooling Degree Days 0 0  
Month to date cooling degree days 0 0  
Year to date cooling degree days 0 0  
Moisture  
Dew Point 5 °F    
Average Humidity 71    
Maximum Humidity 80    
Minimum Humidity 61    
Precipitation  
Precipitation T in 0.04 in 0.50 in (1915)
Month to date precipitation 1.98 1.37  
Year to date precipitation 1.98 1.37  
Snow  
Snow T in 0.30 in 5.50 in (1942)
Month to date snowfall 15.3 10.2  
Since 1 July snowfall 34.0 23.3  
Snow Depth 8.00 in    
Sea Level Pressure  
Sea Level Pressure 30.15 in    
Wind  
Wind Speed 4 mph (NW)    
Max Wind Speed 12 mph    
Max Gust Speed 14 mph    
Visibility 10 miles    
Events Snow    
T = Trace of Precipitation, MM = Missing Value Source: NWS Daily Summary

Daily Weather History Graph

Daily Weather History Graph

Search for Another Location

Airport or City:

Trip Planner

Search our weather history database for the weather conditions in past years. The results will help you decide how hot, cold, wet, or windy it might be!

Date:

Astronomy

Jan. 31, 2014 Rise Set
Actual Time 7:10 AM CST 5:09 PM CST
Civil Twilight 6:40 AM CST 5:39 PM CST
Nautical Twilight 6:07 AM CST 6:12 PM CST
Astronomical Twilight 5:34 AM CST 6:45 PM CST
Moon 7:18 AM CST (1/31) 6:36 PM CST (1/31)
Length of Visible Light 10h 58m
Length of Day
9h 59m
New Moon, 1% of the Moon is Illuminated
Jan 31
New Moon
Feb 6
First Quarter
Feb 14
Full
Feb 22
Last Quarter
Mar 1
New

Hourly Weather History & Observations

Time (CST) Temp. Windchill Dew Point Humidity Pressure Visibility Wind Dir Wind Speed Gust Speed Precip Events Conditions
12:54 AM 17.1 °F 5.8 °F 10.0 °F 74% 30.00 in 10.0 mi NW 9.2 mph - N/A   Scattered Clouds
1:54 AM 16.0 °F 5.3 °F 9.0 °F 74% 30.04 in 10.0 mi NW 8.1 mph - N/A   Overcast
2:54 AM 15.1 °F 5.2 °F 8.1 °F 74% 30.06 in 10.0 mi West 6.9 mph - N/A   Overcast
3:54 AM 14.0 °F 5.1 °F 7.0 °F 74% 30.07 in 10.0 mi WNW 5.8 mph - N/A   Overcast
4:54 AM 12.0 °F 0.5 °F 6.1 °F 77% 30.11 in 10.0 mi West 8.1 mph - N/A   Mostly Cloudy
5:54 AM 10.9 °F -0.8 °F 5.0 °F 77% 30.12 in 10.0 mi NW 8.1 mph - N/A   Overcast
6:54 AM 10.9 °F 0.2 °F 3.9 °F 73% 30.14 in 10.0 mi NW 6.9 mph - N/A   Overcast
7:54 AM 10.0 °F -1.9 °F 3.0 °F 73% 30.15 in 10.0 mi North 8.1 mph - N/A   Overcast
8:54 AM 10.9 °F 2.9 °F 3.0 °F 70% 30.17 in 10.0 mi NNW 4.6 mph - N/A   Overcast
9:54 AM 10.9 °F 1.4 °F 3.0 °F 70% 30.18 in 10.0 mi WNW 5.8 mph - N/A   Overcast
10:54 AM 12.0 °F 4.1 °F 3.0 °F 67% 30.23 in 10.0 mi West 4.6 mph - N/A   Overcast
11:54 AM 12.9 °F 5.2 °F 3.9 °F 67% 30.21 in 10.0 mi WSW 4.6 mph - N/A   Overcast
12:54 PM 14.0 °F 3.9 °F 3.9 °F 64% 30.21 in 10.0 mi WNW 6.9 mph - N/A   Overcast
1:54 PM 15.1 °F 7.7 °F 5.0 °F 64% 30.18 in 10.0 mi NNW 4.6 mph - N/A   Overcast
2:54 PM 15.1 °F 6.4 °F 5.0 °F 64% 30.17 in 10.0 mi WNW 5.8 mph - N/A   Overcast
3:54 PM 14.0 °F 6.5 °F 3.9 °F 64% 30.18 in 10.0 mi NW 4.6 mph - N/A   Overcast
4:54 PM 14.0 °F - 3.9 °F 64% 30.17 in 10.0 mi Calm Calm - N/A   Mostly Cloudy
5:54 PM 12.9 °F - 5.0 °F 71% 30.18 in 10.0 mi Calm Calm - N/A   Overcast
6:54 PM 12.9 °F - 3.9 °F 67% 30.17 in 10.0 mi Calm Calm - N/A   Overcast
7:54 PM 12.9 °F - 5.0 °F 71% 30.17 in 10.0 mi Calm Calm - N/A   Overcast
8:54 PM 12.9 °F 6.9 °F 5.0 °F 71% 30.16 in 10.0 mi North 3.5 mph - N/A   Overcast
9:54 PM 12.9 °F - 6.1 °F 74% 30.16 in 10.0 mi Calm Calm - N/A   Overcast
10:54 PM 12.9 °F - 6.1 °F 74% 30.14 in 10.0 mi Calm Calm - 0.00 in Snow Light Snow
11:54 PM 15.1 °F - 7.0 °F 70% 30.14 in 7.0 mi Calm Calm - 0.00 in Snow Light Snow